Location: Kearney
(40.6990°N, 99.0810°W)
Time: 13:40:14
(UTC-05:00)

Daily predictions for brighter satellites

Satellite Brightness Start Highest point End
(mag) Time Altitude Azimuth Time Altitude Azimuth Time Altitude Azimuth
Meteor 1-22 Rocket 4.1 19:39:34 10° S 19:44:53 74° E 19:50:10 10° NNE
Cosmos 1437 3.2 19:42:05 10° NNW 19:45:21 68° W 19:48:35 10° S
Cosmos-2242 4.0 19:43:41 10° SSE 19:47:21 27° E 19:51:03 10° NNE
Cosmos 1603 4.3 19:43:27 10° S 19:48:38 36° ESE 19:53:51 10° NE
NOSS 3-2 (A) 3.6 19:42:41 10° SW 19:48:43 87° NW 19:55:22 10° NE
Meteor 1-24 Rocket 3.7 19:45:00 10° N 19:50:39 90° E 19:56:04 10° S
OAO 3 Rocket 3.9 19:48:02 10° WSW 19:52:29 42° S 19:57:01 10° ESE
Cosmos 1452 Rocket 3.6 19:50:24 10° N 19:55:35 55° ENE 20:00:43 10° SE
Cosmos 1470 4.5 19:54:16 10° ESE 19:56:13 14° E 19:58:11 10° NE
MSX 4.4 19:52:49 10° S 19:58:31 66° WSW 20:04:15 10° NNW
In-Cosmos 22 4.3 19:57:03 10° N 20:02:46 59° ENE 20:08:24 10° SSE
Cosmos 2034 Rocket 4.1 19:57:17 10° SSE 20:03:20 54° E 20:09:30 10° NNE
Cosmos 1464 Rocket 4.0 19:57:33 10° S 20:03:46 74° E 20:09:56 10° N
Cosmos 1674 4.2 20:01:04 10° NNE 20:03:49 18° ENE 20:06:20 11° ESE
SJ-6B 2.8 20:04:23 10° SSE 20:08:21 76° ENE 20:12:26 10° N
SKYMED 2 4.5 20:05:17 10° N 20:09:32 54° WNW 20:13:45 10° SSW
Cosmos 1408 Rocket 3.4 20:06:20 10° N 20:10:40 72° E 20:14:57 10° SSE
CZ-4C R/B 4.3 20:08:36 10° W 20:13:10 26° NW 20:18:12 10° NNE
Cosmos 1420 Rocket 4.3 20:10:34 10° N 20:15:40 46° ENE 20:20:47 10° SE
CENTAUR R/B 3.1 20:12:07 10° S 20:17:21 33° ESE 20:23:07 10° NE
ATLAS 5 CENTAUR R/B 2.2 20:14:05 10° SW 20:18:49 68° NW 20:24:00 10° NNE
Cosmos 1484 Rocket 4.3 20:15:23 10° SSW 20:18:59 39° W 20:22:41 10° NNW
Cosmos 724 4.3 20:13:20 10° SSW 20:19:15 81° ESE 20:25:21 10° NNE
FengYun 1-2 T 4.4 20:17:06 10° SE 20:22:23 49° ENE 20:27:40 10° N
Cosmos 1758 3.3 20:18:44 10° S 20:22:49 80° E 20:26:56 10° N
ALOS 2.9 20:20:34 10° SE 20:24:48 35° ENE 20:29:02 10° N
ISS -3.2 20:22:33 10° SW 20:25:42 51° SE 20:27:24 24° ENE
Helios 1A 3.0 20:22:56 10° SSE 20:27:03 57° ENE 20:31:12 10° N
NOSS 3-2 (C) 4.1 20:22:29 10° SW 20:28:30 60° NW 20:35:06 10° NNE
Spot 2 Rocket 3.4 20:25:49 10° SSE 20:30:49 75° ENE 20:35:53 10° N
Cosmos 1544 3.0 20:27:24 10° S 20:31:05 65° E 20:34:49 10° NNE
Cosmos 1048 Rocket 4.0 20:29:11 10° S 20:34:23 58° ESE 20:39:32 10° NNE
Resurs 1-3 3.5 20:33:03 10° SSE 20:37:24 66° ENE 20:41:46 10° N
Cosmos 1269 Rocket 3.9 20:32:15 10° S 20:37:30 74° ESE 20:42:46 10° NNE
SL-8 R/B 3.6 20:34:23 10° SW 20:39:10 84° SSE 20:42:21 21° ENE
METEOR-M 4.2 20:34:55 10° S 20:40:16 80° WSW 20:45:39 10° NNW
Cosmos 1743 Rocket 3.4 20:36:17 10° N 20:40:44 72° E 20:45:06 10° SSE
HJ-1C 3.6 20:39:34 10° S 20:42:54 71° WSW 20:46:17 10° NNW
Resurs 01 Rocket 1.7 20:38:46 10° SSE 20:43:13 82° WSW 20:47:41 10° NNW
Meteor 1-21 Rocket 4.2 20:38:43 10° N 20:44:17 83° W 20:49:49 10° S
SL-16 R/B 4.1 20:40:09 10° WSW 20:45:08 31° WNW 20:50:09 10° N
Cosmos 1174 4.2 20:42:16 10° S 20:46:56 45° ESE 20:48:25 31° ENE
CZ-2D R/B 3.4 20:50:59 41° ESE 20:51:52 50° ENE 20:55:39 10° N
Cosmos 158 Rocket 3.9 20:47:58 10° S 20:52:39 49° ESE 20:57:21 10° NNE
FENGYUN 3A 3.5 20:51:25 11° SSE 20:56:31 73° ENE 21:01:55 10° N
Abrixas 3.0 20:55:34 10° WSW 20:58:30 51° NNW 20:58:48 48° N
Helios 1B rocket 3.1 20:56:06 10° N 21:00:08 56° WNW 21:04:10 10° SSW
USA 215 3.2 20:53:56 10° NE 21:00:31 84° SE 21:07:03 10° SW
H-2A R/B 2.6 21:03:24 57° SE 21:04:01 71° ENE 21:07:53 10° N
CZ-4B DEB 2.7 21:05:06 78° SSW 21:05:16 82° WSW 21:08:32 10° NNW
Elektron 1 3.8 21:03:40 10° SW 21:06:33 80° NW 21:06:35 79° NW
GP-B 3.1 21:03:37 10° N 21:08:00 56° E 21:08:05 56° E
Nadezhda 4 Rocket 4.3 21:02:42 10° NNW 21:08:57 69° W 21:15:05 10° S
Cosmos 2279 Rocket 4.3 21:09:41 39° E 21:09:45 39° E 21:15:26 10° NNE
SeaSat 1 4.4 21:14:25 14° S 21:14:25 14° S 21:15:10 10° S
GPS 2-04 Rocket1 3.7 21:08:49 10° WSW 21:11:14 30° SSW 21:11:14 30° SSW
ERS-1 Rocket 3.9 21:15:36 31° NE 21:15:36 31° NE 21:19:09 10° N
Cosmos 1092 Rocket 4.0 21:11:49 10° N 21:18:02 80° W 21:24:10 10° S
Gbstr 26 Del rocket 3.2 21:16:39 10° SW 21:21:09 89° NW 21:22:26 52° NE
Cosmos 1943 Rocket 2.8 21:16:12 10° N 21:21:09 38° NE 21:21:09 38° NE
Cosmos 1655 Rocket 4.0 21:18:25 10° N 21:24:34 59° E 21:25:31 53° ESE
Cosmos 2369 Rocket 2.1 21:19:50 10° NNW 21:25:31 88° WSW 21:27:10 49° SSE
Cosmos 2142 Rocket 4.4 21:19:14 10° S 21:25:35 86° E 21:32:02 10° N
Cosmos 1943 3.2 21:20:30 10° SSW 21:26:07 80° WNW 21:31:47 10° NNE
Cosmos 2058 4.4 21:22:07 10° N 21:24:08 27° NNE 21:24:08 27° NNE
Cosmos 1110 Rocket 4.0 21:21:12 10° NNW 21:26:25 61° ENE 21:26:25 61° ENE
Cosmos 2151 3.2 21:25:11 10° N 21:28:44 62° N 21:28:44 62° N
Cosmos 1733 4.1 21:25:52 10° SSW 21:29:37 49° W 21:33:23 10° N
Cosmos 2026 Rocket 3.8 21:24:02 10° N 21:30:09 72° E 21:31:31 54° SE
Cosmos 1470 4.2 21:28:20 10° SSW 21:31:57 37° WNW 21:35:36 10° N
Cosmos 1634 Rocket 4.0 21:27:11 10° S 21:33:26 79° W 21:39:40 10° N
Cosmos 2263 4.1 21:29:20 10° NNW 21:35:10 80° ENE 21:35:41 72° ESE
OAO 3 Rocket 4.5 21:31:25 10° WSW 21:35:09 29° SSW 21:35:09 29° SSW
BREEZE-M DEB (TANK) 3.4 21:48:40 10° WNW 21:57:17 62° NNW 21:57:17 62° NNW
Meteor 2-1 Rocket 4.4 21:58:50 67° N 21:58:50 67° N 22:03:56 10° N
Cosmos 1331 Rocket 4.4 21:53:14 10° NNW 21:57:38 61° NW 21:57:38 61° NW
Cosmos 839 Rocket 4.4 21:51:51 10° NW 21:59:11 63° WSW 22:00:25 53° SSW
ALOS 4.4 21:59:05 12° SW 22:02:18 23° W 22:05:59 10° NW
ISS 0.1 21:59:37 10° W 22:00:05 13° WNW 22:00:05 13° WNW
CENTAUR R/B 3.4 22:01:49 10° WSW 22:07:42 47° NW 22:14:21 10° NNE
Envisat 4.4 22:22:48 33° NNW 22:22:48 33° NNW 22:25:39 10° NNW
USA 215 4.5 22:40:32 26° NNE 22:43:06 36° NNW 22:48:54 10° W
Cosmos 1943 Rocket 4.3 23:00:14 10° NW 23:02:41 22° WNW 23:02:41 22° WNW
